This demonstration page uses our WeatherBlox Daily Observations layout. Learn more.

Hourly Observations for February 11, 2020

Temp ( °F °C ) Dew Point ( °F °C ) Humidity (%) Winds ( mph kmh ) Pressure ( in mb ) Visibility ( mi km ) Precip ( " mm )
12:54 am 00:54 Clear 32 0 22 -5.6 66 66 NNW 10 17 30.3 1026 10 16.0934 0 0
1:54 am 01:54 Clear 30 -1.1 21 -6.1 69 69 NW 6 9 30.31 1026 10 16.0934 0 0
2:54 am 02:54 Clear 27 -2.8 19 -7.2 72 72 NW 5 7 30.31 1026 10 16.0934 0 0
3:54 am 03:54 Clear 28 -2.2 19 -7.2 69 69 NW 7 11 30.3 1026 10 16.0934 0 0
4:54 am 04:54 Clear 28 -2.2 19 -7.2 69 69 NW 7 11 30.31 1026 10 16.0934 0 0
5:54 am 05:54 Clear 26 -3.3 19 -7.2 75 75 NW 7 11 30.32 1027 10 16.0934 0 0
6:54 am 06:54 Clear 24 -4.4 17 -8.3 75 75 W 3 6 30.32 1027 10 16.0934 0 0
7:54 am 07:54 Sunny 25 -3.9 18 -7.8 75 75 Calm 30.34 1027 10 16.0934 0 0
8:54 am 08:54 Sunny 28 -2.2 19 -7.2 69 69 WNW 6 9 30.36 1028 10 16.0934 0 0
9:54 am 09:54 Sunny 32 0 20 -6.7 61 61 WNW 8 13 30.36 1028 10 16.0934 0 0
10:54 am 10:54 Sunny 35 1.7 21 -6.1 57 57 WSW 7 11 30.35 1028 10 16.0934 0 0
11:54 am 11:54 Sunny 39 3.9 20 -6.7 46 46 W 8 13 30.32 1027 10 16.0934 0 0
12:54 pm 12:54 Sunny 41 5 19 -7.2 41 41 W 8 13 30.27 1025 10 16.0934 0 0
1:54 pm 13:54 Sunny 42 5.6 20 -6.7 41 41 WSW 12 19 30.23 1024 10 16.0934 0 0
2:54 pm 14:54 Sunny 43 6.1 19 -7.2 38 38 WSW 13 20 30.2 1023 10 16.0934 0 0
3:54 pm 15:54 Sunny 44 6.7 19 -7.2 37 37 SW 16 26 30.16 1021 10 16.0934 0 0
4:54 pm 16:54 Sunny 43 6.1 20 -6.7 40 40 SSW 13 20 30.14 1021 10 16.0934 0 0
5:54 pm 17:54 Sunny 39 3.9 19 -7.2 45 45 SSW 8 13 30.12 1020 10 16.0934 0 0
6:54 pm 18:54 Clear 30 -1.1 17 -8.3 58 58 S 9 15 30.11 1020 10 16.0934 0 0
7:54 pm 19:54 Clear 34 1.1 20 -6.7 56 56 S 13 20 30.1 1019 10 16.0934 0 0
8:54 pm 20:54 Clear 26 -3.3 18 -7.8 71 71 S 9 15 30.09 1019 10 16.0934 0 0
9:54 pm 21:54 Clear 29 -1.7 20 -6.7 69 69 S 12 19 30.09 1019 10 16.0934 0 0
10:54 pm 22:54 Clear 29 -1.7 20 -6.7 69 69 S 12 19 30.06 1018 10 16.0934 0 0
11:54 pm 23:54 Clear 31 -0.6 20 -6.7 64 64 S 12 19 30.05 1018 10 16.0934 0 0

Powered by AerisWeather